{"data":{"norad_id":63363,"intl_designator":"2025-063A","name":"STARLINK-32840","alt_names":[],"object_type":"PAYLOAD","status":"ACTIVE","operator":null,"country":"US","launch_date":"2025-03-26","launch_site_code":"AFWTR","launch_vehicle":null,"mission":null,"orbit_class":"UNKNOWN","rcs_meters":null,"size_class":null,"mass_kg":null,"dimensions":null,"purposes":["comms"],"wikipedia_slug":null,"has_3d_model":false,"image_url":null,"decayed_at":null,"tle_current":{"epoch":"2026-05-25T01:37:37.483680Z","epoch_age_seconds":65351,"freshness":"FRESH","line1":"1 63363U 25063A   26145.06779495  .00012028  00000+0  41752-3 0  9996","line2":"2 63363  53.1607  54.8428 0001208  89.8517 270.2622 15.30202255 66474","mean_motion":15.30202255,"eccentricity":0.0001208,"inclination_deg":53.1607,"raan_deg":54.8428,"arg_perigee_deg":89.8517,"mean_anomaly_deg":270.2622,"bstar":0.00041752,"rev_number":6647,"period_min":94.105207027028,"perigee_km":474.38045228742,"apogee_km":476.0362205207,"semimajor_km":6853.3453364041,"source":"CELESTRAK","updated_at":"2026-05-25T13:38:19.961191Z"}}}